Content
SEND FEEDBACK

Daily
Averages
Monthly
Summary
United States of America

BIG TIMBER, MONTANA


Home > North America > United States > Montana
Elevation: 4482 feet     Latitude: 45 48N     Longitude: 109 58W

WEATHER
 
SELECT A DAY
Number of Records: 177,593;   Date Range: 1/1/95 - 9/16/14
 
SHARE

PRINT THIS DATA

[ ← Previous Day ]
WEATHER ALMANAC - JULY 22, 2014
[ Next Day → ]
[ °C ]   °F
Weather ElementAverageHighLow
Temperature71.2 °F89.1 °F (1:53 pm)54 °F (5:53 am)
Dewpoint49.5 °F55 °F (8:53 pm)39.9 °F (4:34 pm)
Humidity50.2 %80 % (5:53 am)22 % (1:53 pm)
Barometer30.11 in30.26 in (5:16 pm)30.01 in (1:53 am)
Wind Speed9.3 mph27.6 mph (4:53 pm)
Wind Gust43.7 mph (4:53 pm)
Weather ElementAverage
Visibility9.8 mi
Wind DirectionSSE (149.6 °)

Weather ElementTotal
Precipitation0.13 in
Cooling Degree Days6.6 (Base 65)
Growing Degree Days21.6 (Base 50)
Averaged from 25 records on July 22, 2014
WEATHER CONDITIONS BREAKOUT
WIND DIRECTION BREAKOUT
WEATHER BY HOUR - JULY 22, 2014
[ °C ]   °F
Local TimeTemperatureDewpointHumidityBarometerVisibilityWind DirectionWind SpeedGust SpeedPrecipitationEventsConditions
1:53 AM61.0 °F48.9 °F64 %30.01 in10.0 miENE (60°)3.5 mphPartly Cloudy
2:53 AM61.0 °F48.9 °F64 %30.04 in10.0 miCalmClear
3:53 AM57.0 °F48.9 °F74 %30.07 in10.0 miSSE (150°)3.5 mphMostly Cloudy
4:53 AM55.9 °F48.9 °F77 %30.10 in10.0 miCalmClear
5:53 AM54.0 °F48.0 °F80 %30.12 in10.0 miCalmClear
6:53 AM59.0 °F50.0 °F72 %30.11 in10.0 miCalmClear
8:53 AM70.0 °F51.1 °F51 %30.11 in10.0 miCalmClear
9:53 AM73.0 °F51.1 °F46 %30.11 in10.0 miVariable4.6 mphClear
10:53 AM78.1 °F46.9 °F33 %30.09 in10.0 miSouth (190°)8.1 mphClear
11:53 AM81.0 °F48.9 °F33 %30.09 in10.0 miENE (70°)6.9 mphClear
12:53 PM87.1 °F46.9 °F25 %30.06 in10.0 miWNW (300°)10.4 mphClear
1:53 PM89.1 °F45.0 °F22 %30.06 in10.0 miWNW (290°)13.8 mphClear
2:53 PM89.1 °F46.0 °F22 %30.05 in10.0 miWNW (300°)8.1 mphClear
3:53 PM84.0 °F46.0 °F26 %30.05 in10.0 miNorth (360°)5.8 mph0.00 inPartly Cloudy
4:34 PM82.9 °F39.9 °F22 %30.21 in10.0 miWNW (290°)19.6 mph29.9 mphThunderstormMostly Cloudy
4:53 PM68.0 °F50.0 °F52 %30.14 in9.0 miSSW (200°)27.6 mph43.7 mph0.02 inRain-ThunderstormLight Thunderstorms and Rain
5:02 PM66.0 °F52.0 °F60 %30.24 in6.0 miSW (230°)18.4 mph34.5 mph0.02 inRain-ThunderstormLight Thunderstorms and Rain
5:16 PM66.0 °F53.1 °F63 %30.26 in9.0 miSouth (190°)16.1 mph0.04 inRainLight Rain
5:53 PM69.1 °F54.0 °F58 %30.13 in10.0 miSSW (200°)13.8 mph0.05 inScattered Clouds
6:53 PM79.0 °F52.0 °F39 %30.06 in10.0 miNorth (350°)8.1 mph0.00 inClear
7:53 PM79.0 °F46.9 °F32 %30.06 in10.0 miSW (230°)8.1 mphClear
8:53 PM70.0 °F55.0 °F59 %30.08 in10.0 miCalmClear
9:53 PM69.1 °F52.0 °F54 %30.12 in10.0 miESE (110°)21.9 mph31.1 mphClear
10:53 PM66.9 °F53.1 °F61 %30.14 in10.0 miESE (110°)19.6 mph25.3 mphClear
11:53 PM64.9 °F53.1 °F65 %30.12 in10.0 miESE (110°)13.8 mphClear
Hourly data recorded from KLVM, located miles away from Big Timber, Montana







STORIES FROM OUR PARTNERS